Year,Month,Day,Hour,Minute,Value (Times are PST for barometer in hPa)
2021,10,24,00,00,994.58
2021,10,24,00,01,994.55
2021,10,24,00,02,994.55
2021,10,24,00,03,994.55
2021,10,24,00,04,994.55
2021,10,24,00,05,994.55
2021,10,24,00,06,994.55
2021,10,24,00,07,994.55
2021,10,24,00,08,994.55
2021,10,24,00,09,994.55
2021,10,24,00,10,994.55
2021,10,24,00,11,994.55
2021,10,24,00,12,994.55
2021,10,24,00,13,994.55
2021,10,24,00,14,994.55
2021,10,24,00,15,994.11
2021,10,24,00,16,994.11
2021,10,24,00,17,994.11
2021,10,24,00,18,994.11
2021,10,24,00,19,994.11
2021,10,24,00,20,994.11
2021,10,24,00,21,994.11
2021,10,24,00,22,994.11
2021,10,24,00,23,994.11
2021,10,24,00,24,994.11
2021,10,24,00,25,994.11
2021,10,24,00,26,994.11
2021,10,24,00,27,994.11
2021,10,24,00,28,994.11
2021,10,24,00,29,994.11
2021,10,24,00,30,993.74
2021,10,24,00,31,993.74
2021,10,24,00,32,993.74
2021,10,24,00,33,993.74
2021,10,24,00,34,993.74
2021,10,24,00,35,993.74
2021,10,24,00,36,993.74
2021,10,24,00,37,993.74
2021,10,24,00,38,993.74
2021,10,24,00,39,993.74
2021,10,24,00,40,993.74
2021,10,24,00,41,993.74
2021,10,24,00,42,993.74
2021,10,24,00,43,993.74
2021,10,24,00,44,993.74
2021,10,24,00,45,993.47
2021,10,24,00,46,993.47
2021,10,24,00,47,993.47
2021,10,24,00,48,993.47
2021,10,24,00,49,993.47
2021,10,24,00,50,993.47
2021,10,24,00,51,993.47
2021,10,24,00,52,993.47
2021,10,24,00,53,993.47
2021,10,24,00,54,993.47
2021,10,24,00,55,993.47
2021,10,24,00,56,993.47
2021,10,24,00,57,993.47
2021,10,24,00,58,993.47
2021,10,24,00,59,993.47
2021,10,24,01,00,993.11
2021,10,24,01,01,993.09
2021,10,24,01,02,993.09
2021,10,24,01,03,993.09
2021,10,24,01,04,993.09
2021,10,24,01,05,993.09
2021,10,24,01,06,993.09
2021,10,24,01,07,993.09
2021,10,24,01,08,993.09
2021,10,24,01,09,993.09
2021,10,24,01,10,993.09
2021,10,24,01,11,993.09
2021,10,24,01,12,993.09
2021,10,24,01,13,993.09
2021,10,24,01,14,993.09
2021,10,24,01,15,992.96
2021,10,24,01,16,992.96
2021,10,24,01,17,992.96
2021,10,24,01,18,992.96
2021,10,24,01,19,992.96
2021,10,24,01,20,992.96
2021,10,24,01,21,992.96
2021,10,24,01,22,992.96
2021,10,24,01,23,992.96
2021,10,24,01,24,992.96
2021,10,24,01,25,992.96
2021,10,24,01,26,992.96
2021,10,24,01,27,992.96
2021,10,24,01,28,992.96
2021,10,24,01,29,992.96
2021,10,24,01,30,992.89
2021,10,24,01,31,992.89
2021,10,24,01,32,992.89
2021,10,24,01,33,992.89
2021,10,24,01,34,992.89
2021,10,24,01,35,992.89
2021,10,24,01,36,992.89
2021,10,24,01,37,992.89
2021,10,24,01,38,992.89
2021,10,24,01,39,992.89
2021,10,24,01,40,992.89
2021,10,24,01,41,992.89
2021,10,24,01,42,992.89
2021,10,24,01,43,992.89
2021,10,24,01,44,992.89
2021,10,24,01,45,992.69
2021,10,24,01,46,992.69
2021,10,24,01,47,992.69
2021,10,24,01,48,992.69
2021,10,24,01,49,992.69
2021,10,24,01,50,992.69
2021,10,24,01,51,992.69
2021,10,24,01,52,992.69
2021,10,24,01,53,992.69
2021,10,24,01,54,992.69
2021,10,24,01,55,992.69
2021,10,24,01,56,992.69
2021,10,24,01,57,992.69
2021,10,24,01,58,992.69
2021,10,24,01,59,992.69
2021,10,24,02,00,992.17
2021,10,24,02,01,992.14
2021,10,24,02,02,992.14
2021,10,24,02,03,992.14
2021,10,24,02,04,992.14
2021,10,24,02,05,992.14
2021,10,24,02,06,992.14
2021,10,24,02,07,992.14
2021,10,24,02,08,992.14
2021,10,24,02,09,992.14
2021,10,24,02,10,992.14
2021,10,24,02,11,992.14
2021,10,24,02,12,992.14
2021,10,24,02,13,992.14
2021,10,24,02,14,992.14
2021,10,24,02,15,991.91
2021,10,24,02,16,991.91
2021,10,24,02,17,991.91
2021,10,24,02,18,991.91
2021,10,24,02,19,991.91
2021,10,24,02,20,991.91
2021,10,24,02,21,991.91
2021,10,24,02,22,991.91
2021,10,24,02,23,991.91
2021,10,24,02,24,991.91
2021,10,24,02,25,991.91
2021,10,24,02,26,991.91
2021,10,24,02,27,991.91
2021,10,24,02,28,991.91
2021,10,24,02,29,991.91
2021,10,24,02,30,991.67
2021,10,24,02,31,991.67
2021,10,24,02,32,991.67
2021,10,24,02,33,991.67
2021,10,24,02,34,991.67
2021,10,24,02,35,991.67
2021,10,24,02,36,991.67
2021,10,24,02,37,991.67
2021,10,24,02,38,991.67
2021,10,24,02,39,991.67
2021,10,24,02,40,991.67
2021,10,24,02,41,991.67
2021,10,24,02,42,991.67
2021,10,24,02,43,991.67
2021,10,24,02,44,991.67
2021,10,24,02,45,991.22
2021,10,24,02,46,991.20
2021,10,24,02,47,991.20
2021,10,24,02,48,991.20
2021,10,24,02,49,991.20
2021,10,24,02,50,991.20
2021,10,24,02,51,991.20
2021,10,24,02,52,991.20
2021,10,24,02,53,991.20
2021,10,24,02,54,991.20
2021,10,24,02,55,991.20
2021,10,24,02,56,991.20
2021,10,24,02,57,991.20
2021,10,24,02,58,991.20
2021,10,24,02,59,991.20
2021,10,24,03,00,990.82
2021,10,24,03,01,990.82
2021,10,24,03,02,990.82
2021,10,24,03,03,990.82
2021,10,24,03,04,990.82
2021,10,24,03,05,990.82
2021,10,24,03,06,990.82
2021,10,24,03,07,990.82
2021,10,24,03,08,990.82
2021,10,24,03,09,990.82
2021,10,24,03,10,990.82
2021,10,24,03,11,990.82
2021,10,24,03,12,990.82
2021,10,24,03,13,990.82
2021,10,24,03,14,990.82
2021,10,24,03,15,990.32
2021,10,24,03,16,990.32
2021,10,24,03,17,990.32
2021,10,24,03,18,990.32
2021,10,24,03,19,990.32
2021,10,24,03,20,990.32
2021,10,24,03,21,990.32
2021,10,24,03,22,990.32
2021,10,24,03,23,990.32
2021,10,24,03,24,990.32
2021,10,24,03,25,990.32
2021,10,24,03,26,990.32
2021,10,24,03,27,990.32
2021,10,24,03,28,990.32
2021,10,24,03,29,990.32
2021,10,24,03,30,989.77
2021,10,24,03,31,989.77
2021,10,24,03,32,989.77
2021,10,24,03,33,989.77
2021,10,24,03,34,989.77
2021,10,24,03,35,989.77
2021,10,24,03,36,989.77
2021,10,24,03,37,989.77
2021,10,24,03,38,989.77
2021,10,24,03,39,989.77
2021,10,24,03,40,989.77
2021,10,24,03,41,989.77
2021,10,24,03,42,989.77
2021,10,24,03,43,989.77
2021,10,24,03,44,989.77
2021,10,24,03,45,989.29
2021,10,24,03,46,989.27
2021,10,24,03,47,989.27
2021,10,24,03,48,989.27
2021,10,24,03,49,989.27
2021,10,24,03,50,989.27
2021,10,24,03,51,989.27
2021,10,24,03,52,989.27
2021,10,24,03,53,989.27
2021,10,24,03,54,989.27
2021,10,24,03,55,989.27
2021,10,24,03,56,989.27
2021,10,24,03,57,989.27
2021,10,24,03,58,989.27
2021,10,24,03,59,989.27
2021,10,24,04,00,989.14
2021,10,24,04,01,989.13
2021,10,24,04,02,989.13
2021,10,24,04,03,989.13
2021,10,24,04,04,989.13
2021,10,24,04,05,989.13
2021,10,24,04,06,989.13
2021,10,24,04,07,989.13
2021,10,24,04,08,989.13
2021,10,24,04,09,989.13
2021,10,24,04,10,989.13
2021,10,24,04,11,989.13
2021,10,24,04,12,989.13
2021,10,24,04,13,989.13
2021,10,24,04,14,989.13
2021,10,24,04,15,988.74
2021,10,24,04,16,988.72
2021,10,24,04,17,988.72
2021,10,24,04,18,988.72
2021,10,24,04,19,988.72
2021,10,24,04,20,988.72
2021,10,24,04,21,988.72
2021,10,24,04,22,988.72
2021,10,24,04,23,988.72
2021,10,24,04,24,988.72
2021,10,24,04,25,988.72
2021,10,24,04,26,988.72
2021,10,24,04,27,988.72
2021,10,24,04,28,988.72
2021,10,24,04,29,988.72
2021,10,24,04,30,988.21
2021,10,24,04,31,988.18
2021,10,24,04,32,988.18
2021,10,24,04,33,988.18
2021,10,24,04,34,988.18
2021,10,24,04,35,988.18
2021,10,24,04,36,988.18
2021,10,24,04,37,988.18
2021,10,24,04,38,988.18
2021,10,24,04,39,988.18
2021,10,24,04,40,988.18
2021,10,24,04,41,988.18
2021,10,24,04,42,988.18
2021,10,24,04,43,988.18
2021,10,24,04,44,988.18
2021,10,24,04,45,987.35
2021,10,24,04,46,987.30
2021,10,24,04,47,987.30
2021,10,24,04,48,987.30
2021,10,24,04,49,987.30
2021,10,24,04,50,987.30
2021,10,24,04,51,987.30
2021,10,24,04,52,987.30
2021,10,24,04,53,987.30
2021,10,24,04,54,987.30
2021,10,24,04,55,987.30
2021,10,24,04,56,987.30
2021,10,24,04,57,987.30
2021,10,24,04,58,987.30
2021,10,24,04,59,987.30
2021,10,24,05,00,987.37
2021,10,24,05,01,987.37
2021,10,24,05,02,987.37
2021,10,24,05,03,987.37
2021,10,24,05,04,987.37
2021,10,24,05,05,987.37
2021,10,24,05,06,987.37
2021,10,24,05,07,987.37
2021,10,24,05,08,987.37
2021,10,24,05,09,987.37
2021,10,24,05,10,987.37
2021,10,24,05,11,987.37
2021,10,24,05,12,987.37
2021,10,24,05,13,987.37
2021,10,24,05,14,987.37
2021,10,24,05,15,987.11
2021,10,24,05,16,987.10
2021,10,24,05,17,987.10
2021,10,24,05,18,987.10
2021,10,24,05,19,987.10
2021,10,24,05,20,987.10
2021,10,24,05,21,987.10
2021,10,24,05,22,987.10
2021,10,24,05,23,987.10
2021,10,24,05,24,987.10
2021,10,24,05,25,987.10
2021,10,24,05,26,987.10
2021,10,24,05,27,987.10
2021,10,24,05,28,987.10
2021,10,24,05,29,987.10
2021,10,24,05,30,986.12
2021,10,24,05,31,986.12
2021,10,24,05,32,986.12
2021,10,24,05,33,986.12
2021,10,24,05,34,986.12
2021,10,24,05,35,986.12
2021,10,24,05,36,986.12
2021,10,24,05,37,986.12
2021,10,24,05,38,986.12
2021,10,24,05,39,986.12
2021,10,24,05,40,986.12
2021,10,24,05,41,986.12
2021,10,24,05,42,986.12
2021,10,24,05,43,986.12
2021,10,24,05,44,986.12
2021,10,24,05,45,985.61
2021,10,24,05,46,985.61
2021,10,24,05,47,985.61
2021,10,24,05,48,985.61
2021,10,24,05,49,985.61
2021,10,24,05,50,985.61
2021,10,24,05,51,985.61
2021,10,24,05,52,985.61
2021,10,24,05,53,985.61
2021,10,24,05,54,985.61
2021,10,24,05,55,985.61
2021,10,24,05,56,985.61
2021,10,24,05,57,985.61
2021,10,24,05,58,985.61
2021,10,24,05,59,985.61
2021,10,24,06,00,985.10
2021,10,24,06,01,985.07
2021,10,24,06,02,985.07
2021,10,24,06,03,985.07
2021,10,24,06,04,985.07
2021,10,24,06,05,985.07
2021,10,24,06,06,985.07
2021,10,24,06,07,985.07
2021,10,24,06,08,985.07
2021,10,24,06,09,985.07
2021,10,24,06,10,985.07
2021,10,24,06,11,985.07
2021,10,24,06,12,985.07
2021,10,24,06,13,985.07
2021,10,24,06,14,985.07
2021,10,24,06,15,984.29
2021,10,24,06,16,984.25
2021,10,24,06,17,984.25
2021,10,24,06,18,984.25
2021,10,24,06,19,984.25
2021,10,24,06,20,984.25
2021,10,24,06,21,984.25
2021,10,24,06,22,984.25
2021,10,24,06,23,984.25
2021,10,24,06,24,984.25
2021,10,24,06,25,984.25
2021,10,24,06,26,984.25
2021,10,24,06,27,984.25
2021,10,24,06,28,984.25
2021,10,24,06,29,984.25
2021,10,24,06,30,983.44
2021,10,24,06,31,983.44
2021,10,24,06,32,983.44
2021,10,24,06,33,983.44
2021,10,24,06,34,983.44
2021,10,24,06,35,983.44
2021,10,24,06,36,983.44
2021,10,24,06,37,983.44
2021,10,24,06,38,983.44
2021,10,24,06,39,983.44
2021,10,24,06,40,983.44
2021,10,24,06,41,983.44
2021,10,24,06,42,983.44
2021,10,24,06,43,983.44
2021,10,24,06,44,983.44
2021,10,24,06,45,983.21
2021,10,24,06,46,983.20
2021,10,24,06,47,983.20
2021,10,24,06,48,983.20
2021,10,24,06,49,983.20
2021,10,24,06,50,983.20
2021,10,24,06,51,983.20
2021,10,24,06,52,983.20
2021,10,24,06,53,983.20
2021,10,24,06,54,983.20
2021,10,24,06,55,983.20
2021,10,24,06,56,983.20
2021,10,24,06,57,983.20
2021,10,24,06,58,983.20
2021,10,24,06,59,983.20
2021,10,24,07,00,982.90
2021,10,24,07,01,982.90
2021,10,24,07,02,982.90
2021,10,24,07,03,982.90
2021,10,24,07,04,982.90
2021,10,24,07,05,982.90
2021,10,24,07,06,982.90
2021,10,24,07,07,982.90
2021,10,24,07,08,982.90
2021,10,24,07,09,982.90
2021,10,24,07,10,982.90
2021,10,24,07,11,982.90
2021,10,24,07,12,982.90
2021,10,24,07,13,982.90
2021,10,24,07,14,982.90
2021,10,24,07,15,982.42
2021,10,24,07,16,982.39
2021,10,24,07,17,982.39
2021,10,24,07,18,982.39
2021,10,24,07,19,982.39
2021,10,24,07,20,982.39
2021,10,24,07,21,982.39
2021,10,24,07,22,982.39
2021,10,24,07,23,982.39
2021,10,24,07,24,982.39
2021,10,24,07,25,982.39
2021,10,24,07,26,982.39
2021,10,24,07,27,982.39
2021,10,24,07,28,982.39
2021,10,24,07,29,982.39
2021,10,24,07,30,982.05
2021,10,24,07,31,982.05
2021,10,24,07,32,982.05
2021,10,24,07,33,982.05
2021,10,24,07,34,982.05
2021,10,24,07,35,982.05
2021,10,24,07,36,982.05
2021,10,24,07,37,982.05
2021,10,24,07,38,982.05
2021,10,24,07,39,982.05
2021,10,24,07,40,982.05
2021,10,24,07,41,982.05
2021,10,24,07,42,982.05
2021,10,24,07,43,982.05
2021,10,24,07,44,982.05
2021,10,24,07,45,981.34
2021,10,24,07,46,981.34
2021,10,24,07,47,981.34
2021,10,24,07,48,981.34
2021,10,24,07,49,981.34
2021,10,24,07,50,981.34
2021,10,24,07,51,981.34
2021,10,24,07,52,981.34
2021,10,24,07,53,981.34
2021,10,24,07,54,981.34
2021,10,24,07,55,981.34
2021,10,24,07,56,981.34
2021,10,24,07,57,981.34
2021,10,24,07,58,981.34
2021,10,24,07,59,981.34
2021,10,24,08,00,981.31
2021,10,24,08,01,981.31
2021,10,24,08,02,981.31
2021,10,24,08,03,981.31
2021,10,24,08,04,981.31
2021,10,24,08,05,981.31
2021,10,24,08,06,981.31
2021,10,24,08,07,981.31
2021,10,24,08,08,981.31
2021,10,24,08,09,981.31
2021,10,24,08,10,981.31
2021,10,24,08,11,981.31
2021,10,24,08,12,981.31
2021,10,24,08,13,981.31
2021,10,24,08,14,981.31
2021,10,24,08,15,980.83
2021,10,24,08,16,980.83
2021,10,24,08,17,980.83
2021,10,24,08,18,980.83
2021,10,24,08,19,980.83
2021,10,24,08,20,980.83
2021,10,24,08,21,980.83
2021,10,24,08,22,980.83
2021,10,24,08,23,980.83
2021,10,24,08,24,980.83
2021,10,24,08,25,980.83
2021,10,24,08,26,980.83
2021,10,24,08,27,980.83
2021,10,24,08,28,980.83
2021,10,24,08,29,980.83
2021,10,24,08,30,980.64
2021,10,24,08,31,980.63
2021,10,24,08,32,980.63
2021,10,24,08,33,980.63
2021,10,24,08,34,980.63
2021,10,24,08,35,980.63
2021,10,24,08,36,980.63
2021,10,24,08,37,980.63
2021,10,24,08,38,980.63
2021,10,24,08,39,980.63
2021,10,24,08,40,980.63
2021,10,24,08,41,980.63
2021,10,24,08,42,980.63
2021,10,24,08,43,980.63
2021,10,24,08,44,980.63
2021,10,24,08,45,980.60
2021,10,24,08,46,980.60
2021,10,24,08,47,980.60
2021,10,24,08,48,980.60
2021,10,24,08,49,980.60
2021,10,24,08,50,980.60
2021,10,24,08,51,980.60
2021,10,24,08,52,980.60
2021,10,24,08,53,980.60
2021,10,24,08,54,980.60
2021,10,24,08,55,980.60
2021,10,24,08,56,980.60
2021,10,24,08,57,980.60
2021,10,24,08,58,980.60
2021,10,24,08,59,980.60
2021,10,24,09,00,980.28
2021,10,24,09,01,980.26
2021,10,24,09,02,980.26
2021,10,24,09,03,980.26
2021,10,24,09,04,980.26
2021,10,24,09,05,980.26
2021,10,24,09,06,980.26
2021,10,24,09,07,980.26
2021,10,24,09,08,980.26
2021,10,24,09,09,980.26
2021,10,24,09,10,980.26
2021,10,24,09,11,980.26
2021,10,24,09,12,980.26
2021,10,24,09,13,980.26
2021,10,24,09,14,980.26
2021,10,24,09,15,980.29
2021,10,24,09,16,980.29
2021,10,24,09,17,980.29
2021,10,24,09,18,980.29
2021,10,24,09,19,980.29
2021,10,24,09,20,980.29
2021,10,24,09,21,980.29
2021,10,24,09,22,980.29
2021,10,24,09,23,980.29
2021,10,24,09,24,980.29
2021,10,24,09,25,980.29
2021,10,24,09,26,980.29
2021,10,24,09,27,980.29
2021,10,24,09,28,980.29
2021,10,24,09,29,980.29
2021,10,24,09,30,980.26
2021,10,24,09,31,980.26
2021,10,24,09,32,980.26
2021,10,24,09,33,980.26
2021,10,24,09,34,980.26
2021,10,24,09,35,980.26
2021,10,24,09,36,980.26
2021,10,24,09,37,980.26
2021,10,24,09,38,980.26
2021,10,24,09,39,980.26
2021,10,24,09,40,980.26
2021,10,24,09,41,980.26
2021,10,24,09,42,980.26
2021,10,24,09,43,980.26
2021,10,24,09,44,980.26
2021,10,24,09,45,980.22
2021,10,24,09,46,980.22
2021,10,24,09,47,980.22
2021,10,24,09,48,980.22
2021,10,24,09,49,980.22
2021,10,24,09,50,980.22
2021,10,24,09,51,980.22
2021,10,24,09,52,980.22
2021,10,24,09,53,980.22
2021,10,24,09,54,980.22
2021,10,24,09,55,980.22
2021,10,24,09,56,980.22
2021,10,24,09,57,980.22
2021,10,24,09,58,980.22
2021,10,24,09,59,980.22
2021,10,24,10,00,979.33
2021,10,24,10,01,979.24
2021,10,24,10,02,979.24
2021,10,24,10,03,979.24
2021,10,24,10,04,979.24
2021,10,24,10,05,979.24
2021,10,24,10,06,979.24
2021,10,24,10,07,979.24
2021,10,24,10,08,979.24
2021,10,24,10,09,979.24
2021,10,24,10,10,979.24
2021,10,24,10,11,979.24
2021,10,24,10,12,979.24
2021,10,24,10,13,979.24
2021,10,24,10,14,979.24
2021,10,24,10,15,978.34
2021,10,24,10,16,978.29
2021,10,24,10,17,978.29
2021,10,24,10,18,978.29
2021,10,24,10,19,978.29
2021,10,24,10,20,978.29
2021,10,24,10,21,978.29
2021,10,24,10,22,978.29
2021,10,24,10,23,978.29
2021,10,24,10,24,978.29
2021,10,24,10,25,978.29
2021,10,24,10,26,978.29
2021,10,24,10,27,978.29
2021,10,24,10,28,978.29
2021,10,24,10,29,978.29
2021,10,24,10,30,978.69
2021,10,24,10,31,978.73
2021,10,24,10,32,978.73
2021,10,24,10,33,978.73
2021,10,24,10,34,978.73
2021,10,24,10,35,978.73
2021,10,24,10,36,978.73
2021,10,24,10,37,978.73
2021,10,24,10,38,978.73
2021,10,24,10,39,978.73
2021,10,24,10,40,978.73
2021,10,24,10,41,978.73
2021,10,24,10,42,978.73
2021,10,24,10,43,978.73
2021,10,24,10,44,978.73
2021,10,24,10,45,978.22
2021,10,24,10,46,978.19
2021,10,24,10,47,978.19
2021,10,24,10,48,978.19
2021,10,24,10,49,978.19
2021,10,24,10,50,978.19
2021,10,24,10,51,978.19
2021,10,24,10,52,978.19
2021,10,24,10,53,978.19
2021,10,24,10,54,978.19
2021,10,24,10,55,978.19
2021,10,24,10,56,978.19
2021,10,24,10,57,978.19
2021,10,24,10,58,978.19
2021,10,24,10,59,978.19
2021,10,24,11,00,978.25
2021,10,24,11,01,978.26
2021,10,24,11,02,978.26
2021,10,24,11,03,978.26
2021,10,24,11,04,978.26
2021,10,24,11,05,978.26
2021,10,24,11,06,978.26
2021,10,24,11,07,978.26
2021,10,24,11,08,978.26
2021,10,24,11,09,978.26
2021,10,24,11,10,978.26
2021,10,24,11,11,978.26
2021,10,24,11,12,978.26
2021,10,24,11,13,978.26
2021,10,24,11,14,978.26
2021,10,24,11,15,978.13
2021,10,24,11,16,978.12
2021,10,24,11,17,978.12
2021,10,24,11,18,978.12
2021,10,24,11,19,978.12
2021,10,24,11,20,978.12
2021,10,24,11,21,978.12
2021,10,24,11,22,978.12
2021,10,24,11,23,978.12
2021,10,24,11,24,978.12
2021,10,24,11,25,978.12
2021,10,24,11,26,978.12
2021,10,24,11,27,978.12
2021,10,24,11,28,978.12
2021,10,24,11,29,978.12
2021,10,24,11,30,978.16
2021,10,24,11,31,978.16
2021,10,24,11,32,978.16
2021,10,24,11,33,978.16
2021,10,24,11,34,978.16
2021,10,24,11,35,978.16
2021,10,24,11,36,978.16
2021,10,24,11,37,978.16
2021,10,24,11,38,978.16
2021,10,24,11,39,978.16
2021,10,24,11,40,978.16
2021,10,24,11,41,978.16
2021,10,24,11,42,978.16
2021,10,24,11,43,978.16
2021,10,24,11,44,978.16
2021,10,24,11,45,978.23
2021,10,24,11,46,978.23
2021,10,24,11,47,978.23
2021,10,24,11,48,978.23
2021,10,24,11,49,978.23
2021,10,24,11,50,978.23
2021,10,24,11,51,978.23
2021,10,24,11,52,978.23
2021,10,24,11,53,978.23
2021,10,24,11,54,978.23
2021,10,24,11,55,978.23
2021,10,24,11,56,978.23
2021,10,24,11,57,978.23
2021,10,24,11,58,978.23
2021,10,24,11,59,978.23
2021,10,24,12,00,978.12
2021,10,24,12,01,978.12
2021,10,24,12,02,978.12
2021,10,24,12,03,978.12
2021,10,24,12,04,978.12
2021,10,24,12,05,978.12
2021,10,24,12,06,978.12
2021,10,24,12,07,978.12
2021,10,24,12,08,978.12
2021,10,24,12,09,978.12
2021,10,24,12,10,978.12
2021,10,24,12,11,978.12
2021,10,24,12,12,978.12
2021,10,24,12,13,978.12
2021,10,24,12,14,978.12
2021,10,24,12,15,977.67
2021,10,24,12,16,977.65
2021,10,24,12,17,977.65
2021,10,24,12,18,977.65
2021,10,24,12,19,977.65
2021,10,24,12,20,977.65
2021,10,24,12,21,977.65
2021,10,24,12,22,977.65
2021,10,24,12,23,977.65
2021,10,24,12,24,977.65
2021,10,24,12,25,977.65
2021,10,24,12,26,977.65
2021,10,24,12,27,977.65
2021,10,24,12,28,977.65
2021,10,24,12,29,977.65
2021,10,24,12,30,977.65
2021,10,24,12,31,977.65
2021,10,24,12,32,977.65
2021,10,24,12,33,977.65
2021,10,24,12,34,977.65
2021,10,24,12,35,977.65
2021,10,24,12,36,977.65
2021,10,24,12,37,977.65
2021,10,24,12,38,977.65
2021,10,24,12,39,977.65
2021,10,24,12,40,977.65
2021,10,24,12,41,977.65
2021,10,24,12,42,977.65
2021,10,24,12,43,977.65
2021,10,24,12,44,977.65
2021,10,24,12,45,977.65
2021,10,24,12,46,977.65
2021,10,24,12,47,977.65
2021,10,24,12,48,977.65
2021,10,24,12,49,977.65
2021,10,24,12,50,977.65
2021,10,24,12,51,977.65
2021,10,24,12,52,977.65
2021,10,24,12,53,977.65
2021,10,24,12,54,977.65
2021,10,24,12,55,977.65
2021,10,24,12,56,977.65
2021,10,24,12,57,977.65
2021,10,24,12,58,977.65
2021,10,24,12,59,977.65
2021,10,24,13,00,978.26
2021,10,24,13,01,978.29
2021,10,24,13,02,978.29
2021,10,24,13,03,978.29
2021,10,24,13,04,978.29
2021,10,24,13,05,978.29
2021,10,24,13,06,978.29
2021,10,24,13,07,978.29
2021,10,24,13,08,978.29
2021,10,24,13,09,978.29
2021,10,24,13,10,978.29
2021,10,24,13,11,978.29
2021,10,24,13,12,978.29
2021,10,24,13,13,978.29
2021,10,24,13,14,978.29
2021,10,24,13,15,978.29
2021,10,24,13,16,978.29
2021,10,24,13,17,978.29
2021,10,24,13,18,978.29
2021,10,24,13,19,978.29
2021,10,24,13,20,978.29
2021,10,24,13,21,978.29
2021,10,24,13,22,978.29
2021,10,24,13,23,978.29
2021,10,24,13,24,978.29
2021,10,24,13,25,978.29
2021,10,24,13,26,978.29
2021,10,24,13,27,978.29
2021,10,24,13,28,978.29
2021,10,24,13,29,978.29
2021,10,24,13,30,977.59
2021,10,24,13,31,977.55
2021,10,24,13,32,977.55
2021,10,24,13,33,977.55
2021,10,24,13,34,977.55
2021,10,24,13,35,977.55
2021,10,24,13,36,977.55
2021,10,24,13,37,977.55
2021,10,24,13,38,977.55
2021,10,24,13,39,977.55
2021,10,24,13,40,977.55
2021,10,24,13,41,977.55
2021,10,24,13,42,977.55
2021,10,24,13,43,977.55
2021,10,24,13,44,977.55
2021,10,24,13,45,977.26
2021,10,24,13,46,977.24
2021,10,24,13,47,977.24
2021,10,24,13,48,977.24
2021,10,24,13,49,977.24
2021,10,24,13,50,977.24
2021,10,24,13,51,977.24
2021,10,24,13,52,977.24
2021,10,24,13,53,977.24
2021,10,24,13,54,977.24
2021,10,24,13,55,977.24
2021,10,24,13,56,977.24
2021,10,24,13,57,977.24
2021,10,24,13,58,977.24
2021,10,24,13,59,977.24
2021,10,24,14,00,979.07
2021,10,24,14,01,979.17
2021,10,24,14,02,979.17
2021,10,24,14,03,979.17
2021,10,24,14,04,979.17
2021,10,24,14,05,979.17
2021,10,24,14,06,979.17
2021,10,24,14,07,979.17
2021,10,24,14,08,979.17
2021,10,24,14,09,979.17
2021,10,24,14,10,979.17
2021,10,24,14,11,979.17
2021,10,24,14,12,979.17
2021,10,24,14,13,979.17
2021,10,24,14,14,979.17
2021,10,24,14,15,978.90
2021,10,24,14,16,978.87
2021,10,24,14,17,978.87
2021,10,24,14,18,978.87
2021,10,24,14,19,978.87
2021,10,24,14,20,978.87
2021,10,24,14,21,978.87
2021,10,24,14,22,978.87
2021,10,24,14,23,978.87
2021,10,24,14,24,978.87
2021,10,24,14,25,978.87
2021,10,24,14,26,978.87
2021,10,24,14,27,978.87
2021,10,24,14,28,978.87
2021,10,24,14,29,978.87
2021,10,24,14,30,978.74
2021,10,24,14,31,978.73
2021,10,24,14,32,978.73
2021,10,24,14,33,978.73
2021,10,24,14,34,978.73
2021,10,24,14,35,978.73
2021,10,24,14,36,978.73
2021,10,24,14,37,978.73
2021,10,24,14,38,978.73
2021,10,24,14,39,978.73
2021,10,24,14,40,978.73
2021,10,24,14,41,978.73
2021,10,24,14,42,978.73
2021,10,24,14,43,978.73
2021,10,24,14,44,978.73
2021,10,24,14,45,978.28
2021,10,24,14,46,978.26
2021,10,24,14,47,978.26
2021,10,24,14,48,978.26
2021,10,24,14,49,978.26
2021,10,24,14,50,978.26
2021,10,24,14,51,978.26
2021,10,24,14,52,978.26
2021,10,24,14,53,978.26
2021,10,24,14,54,978.26
2021,10,24,14,55,978.26
2021,10,24,14,56,978.26
2021,10,24,14,57,978.26
2021,10,24,14,58,978.26
2021,10,24,14,59,978.26
2021,10,24,15,00,978.66
2021,10,24,15,01,978.70
2021,10,24,15,02,978.70
2021,10,24,15,03,978.70
2021,10,24,15,04,978.70
2021,10,24,15,05,978.70
2021,10,24,15,06,978.70
2021,10,24,15,07,978.70
2021,10,24,15,08,978.70
2021,10,24,15,09,978.70
2021,10,24,15,10,978.70
2021,10,24,15,11,978.70
2021,10,24,15,12,978.70
2021,10,24,15,13,978.70
2021,10,24,15,14,978.70
2021,10,24,15,15,978.89
2021,10,24,15,16,978.90
2021,10,24,15,17,978.90
2021,10,24,15,18,978.90
2021,10,24,15,19,978.90
2021,10,24,15,20,978.90
2021,10,24,15,21,978.90
2021,10,24,15,22,978.90
2021,10,24,15,23,978.90
2021,10,24,15,24,978.90
2021,10,24,15,25,978.90
2021,10,24,15,26,978.90
2021,10,24,15,27,978.90
2021,10,24,15,28,978.90
2021,10,24,15,29,978.90
2021,10,24,15,30,979.61
2021,10,24,15,31,979.65
2021,10,24,15,32,979.65
2021,10,24,15,33,979.65
2021,10,24,15,34,979.65
2021,10,24,15,35,979.65
2021,10,24,15,36,979.65
2021,10,24,15,37,979.65
2021,10,24,15,38,979.65
2021,10,24,15,39,979.65
2021,10,24,15,40,979.65
2021,10,24,15,41,979.65
2021,10,24,15,42,979.65
2021,10,24,15,43,979.65
2021,10,24,15,44,979.65
2021,10,24,15,45,979.61
2021,10,24,15,46,979.61
2021,10,24,15,47,979.61
2021,10,24,15,48,979.61
2021,10,24,15,49,979.61
2021,10,24,15,50,979.61
2021,10,24,15,51,979.61
2021,10,24,15,52,979.61
2021,10,24,15,53,979.61
2021,10,24,15,54,979.61
2021,10,24,15,55,979.61
2021,10,24,15,56,979.61
2021,10,24,15,57,979.61
2021,10,24,15,58,979.61
2021,10,24,15,59,979.61
2021,10,24,16,00,979.37
2021,10,24,16,01,979.34
2021,10,24,16,02,979.34
2021,10,24,16,03,979.34
2021,10,24,16,04,979.34
2021,10,24,16,05,979.34
2021,10,24,16,06,979.34
2021,10,24,16,07,979.34
2021,10,24,16,08,979.34
2021,10,24,16,09,979.34
2021,10,24,16,10,979.34
2021,10,24,16,11,979.34
2021,10,24,16,12,979.34
2021,10,24,16,13,979.34
2021,10,24,16,14,979.34
2021,10,24,16,15,979.73
2021,10,24,16,16,979.75
2021,10,24,16,17,979.75
2021,10,24,16,18,979.75
2021,10,24,16,19,979.75
2021,10,24,16,20,979.75
2021,10,24,16,21,979.75
2021,10,24,16,22,979.75
2021,10,24,16,23,979.75
2021,10,24,16,24,979.75
2021,10,24,16,25,979.75
2021,10,24,16,26,979.75
2021,10,24,16,27,979.75
2021,10,24,16,28,979.75
2021,10,24,16,29,979.75
2021,10,24,16,30,979.48
2021,10,24,16,31,979.45
2021,10,24,16,32,979.45
2021,10,24,16,33,979.45
2021,10,24,16,34,979.45
2021,10,24,16,35,979.45
2021,10,24,16,36,979.45